Flag for U.S.A. Weather past 2 weeks in Racine, Wisconsin, U.S.A.

Now
7 °F

Clear.


Feels Like: -2 °F
Forecast: 5 / 28 °F
Wind: 5 mph from Southwest

Location: Batten International Airport

Current Time: Mar 5, 2015 at 8:43:33 PM

Latest Report: Mar 5, 2015 at 7:53 PM


Visibility: 10 mi

Pressure: 30.57 "Hg

Humidity: 52%

Dew point: -7 °F

Location of RacineLocation

Historic Weather in Racine — Graph

°F

Racine temperature yesterday

Maximum temperature yesterday: 30 °F (at 12:53 AM)
Minimum temperature yesterday: 8 °F (at 11:53 PM)
Average temperature yesterday: 18 °F

Past Weeks' High & Low Weather Summary

 TemperatureHumidityPressure
High33 °F (Mar 3, 1:53 PM)93% (Mar 3, 9:53 AM)30.78 "Hg (Mar 3, 9:53 AM)
Low-9 °F (Feb 19, 4:53 AM)34% (Feb 24, 7:53 PM)29.62 "Hg (Mar 3, 1:53 PM)
Average13 °F60%30.29 "Hg
* Reported Feb 18 6:53 PM — Mar 5 6:53 PM, Racine, Weather by CustomWeather, © 2015

Note: Actual official high and low records may vary slightly from our data, if they occured in-between our weather recording intervals... More about our weather records

Advertising

Racine weather history for previous 24 hours

 ConditionsComfort  
Time TempWeatherWind HumidityBarometerVisibility
6:53 PM
Thu, Mar 5
10 °FClear.6 mph48%30.57 "Hg10 mi
5:53 PM12 °FClear.7 mph44%30.55 "Hg10 mi
4:53 PM13 °FSunny.7 mph42%30.54 "Hg10 mi
3:53 PM15 °FSunny.9 mph38%30.53 "Hg10 mi
2:53 PM14 °FSunny.10 mph42%30.53 "Hg10 mi
1:53 PM14 °FSunny.10 mph40%30.52 "Hg10 mi
12:53 PM13 °FSunny.7 mph40%30.53 "Hg10 mi
11:53 AM12 °FSunny.10 mph42%30.54 "Hg10 mi
10:53 AM12 °FSunny.7 mph42%30.53 "Hg10 mi
9:53 AM11 °FSunny.8 mph42%30.52 "Hg10 mi
8:53 AM8 °FSunny.8 mph45%30.52 "Hg10 mi
7:53 AM4 °FSunny.9 mphN/A30.50 "Hg10 mi
6:53 AM1 °FSunny.8 mph56%30.47 "Hg10 mi
5:53 AM2 °FClear.8 mph54%30.46 "Hg10 mi
4:53 AM3 °FClear.7 mphN/A30.44 "Hg10 mi
3:53 AM4 °FClear.6 mphN/A30.41 "Hg10 mi
2:53 AM5 °FClear.6 mph52%30.40 "Hg10 mi
1:53 AM6 °FClear.6 mph49%30.42 "Hg10 mi
12:53 AM8 °FClear.3 mphN/A30.43 "Hg10 mi
11:53 PM
Wed, Mar 4
8 °FClear.7 mph47%30.41 "Hg10 mi
10:53 PM9 °FClear.6 mph47%30.40 "Hg10 mi
9:53 PM10 °FClear.3 mph45%30.38 "Hg10 mi
8:53 PM12 °FClear.5 mph44%30.36 "Hg10 mi
Weather by CustomWeather, © 2015

See weather overviewHow to use our weather pages